CW9414 Weather Reports


Display with metric or nautical units.
time (UTC)temp
F
wind
direction
speed
MPH
gust
MPH
rain 1hr
in
rain 24hr
in
rain mn
in
humidity
%
barometer
mb
20260906212438 82 247 0.0 0.0 0.00 0.00 1.40 85 1008.6
20260906211438 82 247 0.0 0.0 0.00 0.00 1.40 86 1008.7
20260906210438 82 247 0.0 0.0 0.00 0.00 1.40 86 1008.7
20260906205438 81 247 0.0 1.0 0.00 0.00 1.40 86 1008.9
20260906204438 81 247 0.0 0.0 0.00 0.00 1.40 88 1009.1
20260906203438 81 247 0.0 1.0 0.00 0.00 1.40 87 1009.1
20260906202438 80 248 0.0 1.0 0.00 0.00 1.40 88 1009.1
20260906201441 80 251 0.0 1.0 0.00 0.00 1.40 88 1008.7
20260906200441 80 251 0.0 2.0 0.00 0.00 1.40 87 1008.7
20260906195441 79 252 0.0 2.0 0.00 0.00 1.40 86 1009.3
20260906194441 79 254 0.0 0.0 0.00 0.00 1.39 85 1009.7
20260906193438 78 254 0.0 0.0 0.00 0.00 1.39 84 1009.7
20260906192438 78 254 0.0 0.0 0.00 0.00 1.38 83 1010.1
20260906191439 79 254 0.0 0.0 0.00 0.00 1.36 81 1010.4
20260906190441 79 254 0.0 4.0 0.00 0.00 1.27 79 1010.4
20260906185438 81 338 0.0 9.0 0.00 0.00 1.13 77 1011.1
20260906184438 84 211 0.0 4.0 0.00 0.00 0.80 74 1010.9
20260906183441 87 180 0.0 5.0 0.00 0.00 0.37 69 1010.9
20260906182438 90 144 1.0 10.0 0.00 0.00 0.01 62 1010.2
20260906181437 91 336 0.0 1.0 0.00 0.00 0.00 60 1009.8
20260906180438 92 336 0.0 2.0 0.00 0.00 0.00 60 1009.8
20260906175438 92 319 0.0 2.0 0.00 0.00 0.00 61 1009.8
20260906174438 91 319 1.0 2.0 0.00 0.00 0.00 62 1009.8
20260906173437 91 318 0.0 4.0 0.00 0.00 0.00 63 1009.8
20260906172438 90 313 0.0 1.0 0.00 0.00 0.00 66 1010.3
20260906171437 89 313 0.0 4.0 0.00 0.00 0.00 67 1010.3
20260906170438 88 311 0.0 5.0 0.00 0.00 0.00 68 1010.3
20260906165437 87 31 0.0 2.0 0.00 0.00 0.00 70 1010.3
20260906164437 87 119 0.0 0.0 0.00 0.00 0.00 72 1010.3
20260906163438 86 123 1.0 3.0 0.00 0.00 0.00 74 1010.3
20260906162438 85 161 0.0 2.0 0.00 0.00 0.00 75 1010.3
20260906161438 85 161 0.0 0.0 0.00 0.00 0.00 77 1010.3
20260906160438 84 161 0.0 0.0 0.00 0.00 0.00 75 1010.3
20260906155438 85 161 0.0 0.0 0.00 0.00 0.00 77 1010.3
20260906154437 85 161 0.0 0.0 0.00 0.00 0.00 79 1010.2
20260906153438 84 161 0.0 1.0 0.00 0.00 0.00 80 1010.2
20260906152437 84 161 0.0 0.0 0.00 0.00 0.00 81 1010.2
20260906151438 84 161 0.0 2.0 0.00 0.00 0.00 81 1010.2
20260906150441 84 161 0.0 1.0 0.00 0.00 0.00 82 1010.2
20260906145437 84 161 0.0 1.0 0.00 0.00 0.00 84 1010.2
20260906144438 83 161 0.0 1.0 0.00 0.00 0.00 85 1010.2
20260906143441 83 161 0.0 1.0 0.00 0.00 0.00 86 1010.2
20260906142437 83 161 0.0 1.0 0.00 0.00 0.00 87 1010.2
20260906141438 82 161 0.0 0.0 0.00 0.00 0.00 88 1010.2
20260906140438 82 161 0.0 1.0 0.00 0.00 0.00 89 1010.2
20260906135438 81 161 0.0 0.0 0.00 0.00 0.00 89 1009.9
20260906134438 81 161 0.0 0.0 0.00 0.00 0.00 89 1009.8
20260906133437 81 161 0.0 1.0 0.00 0.00 0.00 89 1009.8
20260906132441 80 161 0.0 1.0 0.00 0.00 0.00 89 1009.7
20260906131437 80 161 0.0 1.0 0.00 0.00 0.00 88 1009.7
20260906130437 79 161 0.0 0.0 0.00 0.00 0.00 87 1009.7
20260906125440 79 161 0.0 0.0 0.00 0.00 0.00 87 1009.5
20260906124440 79 161 0.0 0.0 0.00 0.00 0.00 86 1009.3
20260906123437 79 161 0.0 0.0 0.00 0.00 0.00 86 1009.3
20260906122437 79 161 0.0 0.0 0.00 0.00 0.00 86 1009.0
20260906121437 80 161 0.0 0.0 0.00 0.00 0.00 87 1008.7
20260906120437 80 161 0.0 0.0 0.00 0.00 0.00 86 1008.7
20260906115441 80 161 0.0 0.0 0.00 0.00 0.00 86 1008.6
20260906114437 80 161 0.0 0.0 0.00 0.00 0.00 86 1008.4
20260906113437 80 161 0.0 0.0 0.00 0.00 0.00 85 1008.4
20260906112437 80 161 0.0 0.0 0.00 0.00 0.00 85 1008.3
20260906111437 80 161 0.0 0.0 0.00 0.00 0.00 85 1008.4
20260906110440 80 161 0.0 0.0 0.00 0.00 0.00 84 1008.4
20260906105437 80 161 0.0 0.0 0.00 0.00 0.00 84 1008.4
20260906104438 80 161 0.0 0.0 0.00 0.00 0.00 84 1008.3
20260906103437 80 161 0.0 0.0 0.00 0.00 0.00 84 1008.3
20260906102438 80 161 0.0 0.0 0.00 0.00 0.00 84 1008.1
20260906101437 80 161 0.0 0.0 0.00 0.00 0.00 84 1008.1
20260906100440 80 161 0.0 0.0 0.00 0.00 0.00 84 1008.1
20260906095438 80 161 0.0 0.0 0.00 0.00 0.00 84 1007.9
20260906094440 81 161 0.0 0.0 0.00 0.00 0.00 84 1007.7
20260906093437 81 161 0.0 0.0 0.00 0.00 0.00 84 1007.7
20260906092437 81 161 0.0 0.0 0.00 0.00 0.00 83 1007.7
20260906091437 81 161 0.0 0.0 0.00 0.00 0.00 83 1007.9
20260906090437 81 161 0.0 0.0 0.00 0.00 0.00 83 1007.9
20260906085436 81 161 0.0 0.0 0.00 0.00 0.00 84 1007.6
20260906084437 81 161 0.0 0.0 0.00 0.00 0.00 83 1007.7
20260906083437 81 161 0.0 0.0 0.00 0.00 0.00 82 1007.7
20260906082437 81 161 0.0 0.0 0.00 0.00 0.00 82 1007.7
20260906081437 81 161 0.0 0.0 0.00 0.00 0.00 82 1007.8
20260906080436 81 161 0.0 0.0 0.00 0.00 0.00 82 1007.8
20260906075437 81 161 0.0 0.0 0.00 0.00 0.00 82 1007.9
20260906074437 82 161 0.0 0.0 0.00 0.00 0.00 82 1008.1
20260906073436 82 161 0.0 0.0 0.00 0.00 0.00 82 1008.1
20260906072437 82 161 0.0 0.0 0.00 0.00 0.00 82 1008.1
20260906071437 82 161 0.0 0.0 0.00 0.00 0.00 82 1008.4
20260906070436 82 161 0.0 2.0 0.00 0.00 0.00 82 1008.4
20260906065437 82 161 0.0 0.0 0.00 0.00 0.00 82 1008.6
20260906064436 82 161 0.0 0.0 0.00 0.00 0.00 82 1008.6
20260906063437 82 161 0.0 0.0 0.00 0.00 0.00 82 1008.6
20260906062436 82 161 0.0 1.0 0.00 0.00 0.00 81 1008.4
20260906061436 82 161 0.0 0.0 0.00 0.00 0.00 81 1008.5
20260906060436 82 161 0.0 0.0 0.00 0.00 0.00 81 1008.5
20260906055440 82 161 0.0 0.0 0.00 0.00 0.00 81 1008.3
20260906054436 82 161 0.0 2.0 0.00 0.00 0.00 80 1008.4
20260906053437 82 161 0.0 0.0 0.00 0.00 0.00 80 1008.4
20260906052437 82 161 0.0 3.0 0.00 0.00 0.00 80 1008.6
20260906051436 82 161 0.0 0.0 0.00 0.00 0.00 79 1008.6
20260906050436 83 161 0.0 0.0 0.00 0.00 0.06 79 1008.6
20260906045436 83 161 0.0 1.0 0.00 0.00 0.06 79 1008.7
20260906044436 83 161 0.0 3.0 0.00 0.00 0.06 79 1008.6
20260906043440 83 161 0.0 1.0 0.00 0.00 0.06 79 1008.6
20260906042437 83 161 0.0 3.0 0.00 0.00 0.06 78 1008.7
20260906041439 83 163 0.0 1.0 0.00 0.00 0.06 78 1008.7
20260906040436 83 163 0.0 1.0 0.00 0.00 0.06 78 1008.7
20260906035439 83 163 0.0 2.0 0.00 0.00 0.06 77 1008.7
20260906034437 83 163 0.0 1.0 0.00 0.00 0.06 77 1008.7
20260906033437 83 163 0.0 1.0 0.00 0.00 0.06 77 1008.7
20260906032439 83 163 0.0 3.0 0.00 0.00 0.06 77 1008.7
20260906031437 83 163 2.0 2.0 0.00 0.00 0.06 77 1008.6
20260906030436 83 163 0.0 0.0 0.00 0.00 0.06 76 1008.6
20260906025436 83 163 0.0 2.0 0.00 0.00 0.06 76 1008.4
20260906024440 83 163 2.0 3.0 0.00 0.00 0.06 77 1008.1
20260906023440 83 163 0.0 2.0 0.00 0.00 0.06 77 1008.1
20260906022437 83 163 1.0 4.0 0.00 0.00 0.06 78 1007.8
20260906021437 83 163 0.0 0.0 0.00 0.00 0.06 78 1007.6
20260906020439 84 163 0.0 0.0 0.00 0.00 0.06 78 1007.6
20260906015436 84 163 0.0 0.0 0.00 0.00 0.06 78 1007.5
20260906014436 84 163 0.0 0.0 0.00 0.00 0.06 78 1007.5
20260906013436 84 163 0.0 0.0 0.00 0.00 0.06 78 1007.5
20260906012436 84 163 0.0 0.0 0.00 0.00 0.06 78 1007.2
20260906011436 84 163 0.0 0.0 0.00 0.00 0.06 77 1007.2
20260906010437 84 163 0.0 0.0 0.00 0.00 0.06 77 1007.2
20260906005436 85 163 0.0 0.0 0.00 0.00 0.06 77 1007.2
20260906004436 85 163 0.0 0.0 0.00 0.00 0.06 76 1007.3
20260906003436 85 163 0.0 0.0 0.00 0.00 0.06 77 1007.3
20260906002436 85 163 0.0 0.0 0.00 0.00 0.06 76 1007.6
20260906001436 86 163 0.0 0.0 0.00 0.00 0.06 75 1007.6
20260906000436 86 163 0.0 0.0 0.00 0.00 0.06 75 1007.6
20260905235439 86 163 0.0 0.0 0.00 0.00 0.06 75 1007.6
20260905234436 86 163 0.0 0.0 0.00 0.00 0.06 74 1007.7
20260905233436 86 163 0.0 0.0 0.00 0.00 0.06 74 1007.7
20260905232437 86 163 0.0 0.0 0.00 0.00 0.06 75 1007.6
20260905231436 85 163 0.0 0.0 0.00 0.00 0.06 77 1007.6
20260905230436 85 163 0.0 0.0 0.00 0.00 0.06 77 1007.6
20260905225436 85 163 0.0 0.0 0.00 0.00 0.06 77 1007.3
20260905224437 85 163 0.0 0.0 0.00 0.00 0.06 78 1007.2
20260905223436 84 163 0.0 0.0 0.00 0.00 0.06 78 1007.2
20260905222436 84 163 0.0 0.0 0.00 0.00 0.06 78 1007.2
20260905221436 84 163 0.0 0.0 0.00 0.00 0.06 77 1007.5
20260905220436 84 163 0.0 0.0 0.00 0.00 0.06 77 1007.5
20260905215436 84 163 0.0 0.0 0.00 0.00 0.06 75 1007.5
20260905213404 85 163 0.0 0.0 0.00 0.00 0.06 70 1007.6